Time,TemperatureF,DewpointF,PressureIn,WindDirection,WindDirectionDegrees,WindSpeedMPH,WindSpeedGustMPH,Humidity,HourlyPrecipIn,Conditions,Clouds,dailyrainin,SoftwareType,DateUTC
2013-02-18 00:00:00,48.1,20.4,30.30,North,351,3.0,6.0,33,0.00,,CLR,0.00,VWS V13.01,2013-02-18 05:00:00,
2013-02-18 00:05:00,48.0,20.3,30.29,North,351,2.0,6.0,33,0.00,,CLR,0.00,VWS V13.01,2013-02-18 05:05:00,
2013-02-18 00:10:00,48.0,20.3,30.29,North,350,1.0,6.0,33,0.00,,CLR,0.00,VWS V13.01,2013-02-18 05:10:00,
2013-02-18 00:15:00,48.0,21.0,30.29,North,349,2.0,6.0,34,0.00,,CLR,0.00,VWS V13.01,2013-02-18 05:15:00,
2013-02-18 00:20:00,48.0,21.0,30.29,NNW,344,4.0,7.0,34,0.00,,CLR,0.00,VWS V13.01,2013-02-18 05:20:00,
2013-02-18 00:25:00,48.0,21.0,30.29,NNW,342,4.0,7.0,34,0.00,,CLR,0.00,VWS V13.01,2013-02-18 05:25:00,
2013-02-18 00:30:00,48.0,21.0,30.29,NNW,340,2.0,9.0,34,0.00,,CLR,0.00,VWS V13.01,2013-02-18 05:30:00,
2013-02-18 00:35:00,48.0,21.0,30.29,NNW,338,4.0,7.0,34,0.00,,CLR,0.00,VWS V13.01,2013-02-18 05:35:00,
2013-02-18 00:40:00,48.0,21.0,30.29,NNW,338,2.0,7.0,34,0.00,,CLR,0.00,VWS V13.01,2013-02-18 05:40:00,
2013-02-18 00:45:00,47.9,20.9,30.29,NNW,336,6.0,7.0,34,0.00,,CLR,0.00,VWS V13.01,2013-02-18 05:45:00,
2013-02-18 00:50:00,47.9,20.9,30.29,NNW,335,4.0,8.0,34,0.00,,CLR,0.00,VWS V13.01,2013-02-18 05:50:00,
2013-02-18 00:55:00,47.8,20.8,30.29,NNW,337,3.0,8.0,34,0.00,,CLR,0.00,VWS V13.01,2013-02-18 05:55:00,
2013-02-18 01:00:00,47.8,20.8,30.29,NNW,336,3.0,8.0,34,0.00,,CLR,0.00,VWS V13.01,2013-02-18 06:00:00,
2013-02-18 01:05:00,47.8,20.8,30.28,NNW,335,3.0,7.0,34,0.00,,CLR,0.00,VWS V13.01,2013-02-18 06:05:00,
2013-02-18 01:10:00,47.8,20.8,30.28,NNW,335,3.0,7.0,34,0.00,,CLR,0.00,VWS V13.01,2013-02-18 06:10:00,
2013-02-18 01:15:00,47.7,20.7,30.29,NNW,338,2.0,7.0,34,0.00,,CLR,0.00,VWS V13.01,2013-02-18 06:15:00,
2013-02-18 01:20:00,47.6,19.9,30.29,NNW,340,1.0,7.0,33,0.00,,CLR,0.00,VWS V13.01,2013-02-18 06:20:00,
2013-02-18 01:25:00,47.5,19.9,30.28,NNW,338,6.0,7.0,33,0.00,,CLR,0.00,VWS V13.01,2013-02-18 06:25:00,
2013-02-18 01:30:00,47.5,19.9,30.28,NNW,336,5.0,7.0,33,0.00,,CLR,0.00,VWS V13.01,2013-02-18 06:30:00,
2013-02-18 01:35:00,47.5,19.9,30.28,NNW,335,0.0,6.0,33,0.00,,CLR,0.00,VWS V13.01,2013-02-18 06:35:00,
2013-02-18 01:40:00,47.5,19.9,30.28,NNW,334,3.0,6.0,33,0.00,,CLR,0.00,VWS V13.01,2013-02-18 06:40:00,
2013-02-18 01:45:00,47.4,19.8,30.28,NNW,332,4.0,9.0,33,0.00,,CLR,0.00,VWS V13.01,2013-02-18 06:45:00,
2013-02-18 01:50:00,47.5,20.5,30.28,NNW,337,0.0,10.0,34,0.00,,CLR,0.00,VWS V13.01,2013-02-18 06:50:00,
2013-02-18 01:55:00,47.5,21.2,30.28,NNW,331,1.0,10.0,35,0.00,,CLR,0.00,VWS V13.01,2013-02-18 06:55:00,
2013-02-18 02:00:00,47.5,21.2,30.28,NNW,331,5.0,10.0,35,0.00,,CLR,0.00,VWS V13.01,2013-02-18 07:00:00,
2013-02-18 02:05:00,47.5,21.9,30.27,NNW,335,4.0,6.0,36,0.00,,CLR,0.00,VWS V13.01,2013-02-18 07:05:00,
2013-02-18 02:10:00,47.5,21.9,30.27,NNW,335,5.0,7.0,36,0.00,,CLR,0.00,VWS V13.01,2013-02-18 07:10:00,
2013-02-18 02:15:00,47.6,23.3,30.27,NNW,337,2.0,9.0,38,0.00,,CLR,0.00,VWS V13.01,2013-02-18 07:15:00,
2013-02-18 02:20:00,47.6,23.3,30.27,NNW,336,4.0,9.0,38,0.00,,CLR,0.00,VWS V13.01,2013-02-18 07:20:00,
2013-02-18 02:25:00,47.7,24.0,30.27,NNW,332,6.0,9.0,39,0.00,,CLR,0.00,VWS V13.01,2013-02-18 07:25:00,
2013-02-18 02:30:00,47.8,24.7,30.27,NNW,333,5.0,9.0,40,0.00,,CLR,0.00,VWS V13.01,2013-02-18 07:30:00,
2013-02-18 02:35:00,47.8,25.3,30.27,NNW,333,4.0,5.0,41,0.00,,CLR,0.00,VWS V13.01,2013-02-18 07:35:00,
2013-02-18 02:40:00,47.8,25.3,30.26,NNW,331,2.0,6.0,41,0.00,,CLR,0.00,VWS V13.01,2013-02-18 07:40:00,
2013-02-18 02:45:00,47.8,25.3,30.26,NNW,331,4.0,6.0,41,0.00,,CLR,0.00,VWS V13.01,2013-02-18 07:45:00,
2013-02-18 02:50:00,47.8,25.3,30.26,NNW,332,5.0,7.0,41,0.00,,CLR,0.00,VWS V13.01,2013-02-18 07:50:00,
2013-02-18 02:55:00,47.8,25.3,30.26,NNW,328,1.0,7.0,41,0.00,,CLR,0.00,VWS V13.01,2013-02-18 07:55:00,
2013-02-18 03:00:00,47.8,25.8,30.26,NNW,330,3.0,7.0,42,0.00,,CLR,0.00,VWS V13.01,2013-02-18 08:00:00,
2013-02-18 03:05:00,47.8,25.8,30.26,NNW,331,2.0,7.0,42,0.00,,CLR,0.00,VWS V13.01,2013-02-18 08:05:00,
2013-02-18 03:10:00,47.9,25.9,30.26,NNW,333,3.0,7.0,42,0.00,,CLR,0.00,VWS V13.01,2013-02-18 08:10:00,
2013-02-18 03:15:00,47.9,25.9,30.26,NNW,336,3.0,7.0,42,0.00,,CLR,0.00,VWS V13.01,2013-02-18 08:15:00,
2013-02-18 03:20:00,47.9,25.9,30.26,NNW,333,4.0,7.0,42,0.00,,CLR,0.00,VWS V13.01,2013-02-18 08:20:00,
2013-02-18 03:25:00,48.0,26.0,30.25,NNW,333,2.0,7.0,42,0.00,,CLR,0.00,VWS V13.01,2013-02-18 08:25:00,
2013-02-18 03:30:00,48.0,26.6,30.25,NNW,338,5.0,8.0,43,0.00,,CLR,0.00,VWS V13.01,2013-02-18 08:30:00,
2013-02-18 03:35:00,48.1,26.7,30.25,NNW,334,5.0,7.0,43,0.00,,CLR,0.00,VWS V13.01,2013-02-18 08:35:00,
2013-02-18 03:40:00,48.1,26.7,30.26,NNW,332,4.0,7.0,43,0.00,,CLR,0.00,VWS V13.01,2013-02-18 08:40:00,
2013-02-18 03:45:00,48.2,26.8,30.25,NNW,335,4.0,7.0,43,0.00,,CLR,0.00,VWS V13.01,2013-02-18 08:45:00,
2013-02-18 03:50:00,48.2,27.3,30.25,NNW,339,6.0,9.0,44,0.00,,CLR,0.00,VWS V13.01,2013-02-18 08:50:00,
2013-02-18 03:55:00,48.2,26.8,30.25,NNW,333,0.0,9.0,43,0.00,,CLR,0.00,VWS V13.01,2013-02-18 08:55:00,
2013-02-18 04:00:00,48.2,26.8,30.25,NNW,331,5.0,9.0,43,0.00,,CLR,0.00,VWS V13.01,2013-02-18 09:00:00,
2013-02-18 04:05:00,48.2,27.3,30.25,NNW,329,3.0,6.0,44,0.00,,CLR,0.00,VWS V13.01,2013-02-18 09:05:00,
2013-02-18 04:10:00,48.2,27.3,30.25,NNW,331,3.0,6.0,44,0.00,,CLR,0.00,VWS V13.01,2013-02-18 09:10:00,
2013-02-18 04:15:00,48.1,27.2,30.25,NNW,335,5.0,7.0,44,0.00,,CLR,0.00,VWS V13.01,2013-02-18 09:15:00,
2013-02-18 04:20:00,48.0,27.1,30.25,NNW,340,3.0,8.0,44,0.00,,CLR,0.00,VWS V13.01,2013-02-18 09:20:00,
2013-02-18 04:25:00,48.0,27.1,30.25,NNW,340,1.0,8.0,44,0.00,,CLR,0.00,VWS V13.01,2013-02-18 09:25:00,
2013-02-18 04:30:00,48.0,27.1,30.25,NNW,341,3.0,8.0,44,0.00,,CLR,0.00,VWS V13.01,2013-02-18 09:30:00,
2013-02-18 04:35:00,48.0,27.1,30.25,NNW,340,1.0,6.0,44,0.00,,CLR,0.00,VWS V13.01,2013-02-18 09:35:00,
2013-02-18 04:40:00,47.9,27.0,30.25,NNW,340,2.0,6.0,44,0.00,,CLR,0.00,VWS V13.01,2013-02-18 09:40:00,
2013-02-18 04:45:00,47.9,27.0,30.25,NNW,342,3.0,6.0,44,0.00,,CLR,0.00,VWS V13.01,2013-02-18 09:45:00,
2013-02-18 04:50:00,47.8,27.0,30.26,NNW,341,3.0,6.0,44,0.00,,CLR,0.00,VWS V13.01,2013-02-18 09:50:00,
2013-02-18 04:55:00,47.8,26.4,30.26,NNW,341,1.0,6.0,43,0.00,,CLR,0.00,VWS V13.01,2013-02-18 09:55:00,
2013-02-18 05:00:00,47.8,26.4,30.26,NNW,340,1.0,7.0,43,0.00,,CLR,0.00,VWS V13.01,2013-02-18 10:00:00,
2013-02-18 05:05:00,47.7,26.3,30.26,NNW,340,3.0,4.0,43,0.00,,CLR,0.00,VWS V13.01,2013-02-18 10:05:00,
2013-02-18 05:10:00,47.7,26.9,30.26,NNW,340,3.0,6.0,44,0.00,,CLR,0.00,VWS V13.01,2013-02-18 10:10:00,
2013-02-18 05:15:00,47.7,26.9,30.26,NNW,339,0.0,6.0,44,0.00,,CLR,0.00,VWS V13.01,2013-02-18 10:15:00,
2013-02-18 05:20:00,47.7,26.9,30.26,NNW,342,4.0,6.0,44,0.00,,CLR,0.00,VWS V13.01,2013-02-18 10:20:00,
2013-02-18 05:25:00,47.7,27.4,30.26,NNW,340,3.0,7.0,45,0.00,,CLR,0.00,VWS V13.01,2013-02-18 10:25:00,
2013-02-18 05:30:00,47.7,28.0,30.26,NNW,340,2.0,7.0,46,0.00,,CLR,0.00,VWS V13.01,2013-02-18 10:30:00,
2013-02-18 05:35:00,47.6,27.9,30.27,NNW,340,2.0,3.0,46,0.00,,CLR,0.00,VWS V13.01,2013-02-18 10:35:00,
2013-02-18 05:40:00,47.6,27.9,30.27,NNW,340,1.0,5.0,46,0.00,,CLR,0.00,VWS V13.01,2013-02-18 10:40:00,
2013-02-18 05:45:00,47.5,28.3,30.27,NNW,340,1.0,5.0,47,0.00,,CLR,0.00,VWS V13.01,2013-02-18 10:45:00,
2013-02-18 05:50:00,47.5,28.3,30.27,NNW,341,4.0,6.0,47,0.00,,CLR,0.00,VWS V13.01,2013-02-18 10:50:00,
2013-02-18 05:55:00,47.5,28.8,30.27,NNW,344,2.0,7.0,48,0.00,,CLR,0.00,VWS V13.01,2013-02-18 10:55:00,
2013-02-18 06:00:00,47.6,28.9,30.27,NNW,344,3.0,7.0,48,0.00,,CLR,0.00,VWS V13.01,2013-02-18 11:00:00,
2013-02-18 06:05:00,47.6,28.9,30.27,NNW,343,1.0,4.0,48,0.00,,SCT047,0.00,VWS V13.01,2013-02-18 11:05:00,
2013-02-18 06:10:00,47.5,28.3,30.27,NNW,344,1.0,4.0,47,0.00,,SCT047,0.00,VWS V13.01,2013-02-18 11:10:00,
2013-02-18 06:15:00,47.5,28.3,30.27,NNW,344,4.0,5.0,47,0.00,,SCT047,0.00,VWS V13.01,2013-02-18 11:15:00,
2013-02-18 06:20:00,47.5,28.3,30.27,NNW,344,2.0,7.0,47,0.00,,SCT047,0.00,VWS V13.01,2013-02-18 11:20:00,
2013-02-18 06:25:00,47.4,28.2,30.27,NNW,344,1.0,7.0,47,0.00,,SCT047,0.00,VWS V13.01,2013-02-18 11:25:00,
2013-02-18 06:30:00,47.4,28.2,30.27,NNW,344,3.0,7.0,47,0.00,,SCT047,0.00,VWS V13.01,2013-02-18 11:30:00,
2013-02-18 06:35:00,47.4,28.2,30.27,NNW,345,6.0,6.0,47,0.00,,SCT047,0.00,VWS V13.01,2013-02-18 11:35:00,
2013-02-18 06:40:00,47.4,28.2,30.27,NNW,345,2.0,6.0,47,0.00,,SCT047,0.00,VWS V13.01,2013-02-18 11:40:00,
2013-02-18 06:45:00,47.3,27.6,30.27,NNW,345,1.0,6.0,46,0.00,,SCT047,0.00,VWS V13.01,2013-02-18 11:45:00,
2013-02-18 06:50:00,47.3,27.6,30.27,NNW,345,0.0,6.0,46,0.00,,SCT047,0.00,VWS V13.01,2013-02-18 11:50:00,
2013-02-18 06:55:00,47.3,27.0,30.27,NNW,345,1.0,6.0,45,0.00,,SCT047,0.00,VWS V13.01,2013-02-18 11:55:00,
2013-02-18 07:00:00,47.2,27.0,30.27,NNW,346,1.0,7.0,45,0.00,,SCT047,0.00,VWS V13.01,2013-02-18 12:00:00,
2013-02-18 07:05:00,47.2,27.0,30.27,NNW,346,1.0,5.0,45,0.00,,CLR,0.00,VWS V13.01,2013-02-18 12:05:00,
2013-02-18 07:10:00,47.2,26.4,30.28,NNW,346,0.0,5.0,44,0.00,,CLR,0.00,VWS V13.01,2013-02-18 12:10:00,
2013-02-18 07:15:00,47.1,26.3,30.28,NNW,346,0.0,5.0,44,0.00,,CLR,0.00,VWS V13.01,2013-02-18 12:15:00,
2013-02-18 07:20:00,47.0,25.7,30.28,NNW,346,3.0,5.0,43,0.00,,CLR,0.00,VWS V13.01,2013-02-18 12:20:00,
2013-02-18 07:25:00,47.0,25.1,30.28,NNW,346,1.0,5.0,42,0.00,,CLR,0.00,VWS V13.01,2013-02-18 12:25:00,
2013-02-18 07:30:00,47.0,25.1,30.29,North,355,1.0,5.0,42,0.00,,CLR,0.00,VWS V13.01,2013-02-18 12:30:00,
2013-02-18 07:35:00,47.0,24.5,30.29,North,355,2.0,2.0,41,0.00,,CLR,0.00,VWS V13.01,2013-02-18 12:35:00,
2013-02-18 07:40:00,47.0,24.5,30.29,North,355,0.0,3.0,41,0.00,,CLR,0.00,VWS V13.01,2013-02-18 12:40:00,
2013-02-18 07:45:00,47.2,24.7,30.29,North,355,1.0,5.0,41,0.00,,CLR,0.00,VWS V13.01,2013-02-18 12:45:00,
2013-02-18 07:50:00,47.5,24.4,30.29,North,355,3.0,5.0,40,0.00,,CLR,0.00,VWS V13.01,2013-02-18 12:50:00,
2013-02-18 07:55:00,47.8,24.7,30.29,North,355,3.0,5.0,40,0.00,,CLR,0.00,VWS V13.01,2013-02-18 12:55:00,
2013-02-18 08:00:00,48.1,25.5,30.29,North,355,1.0,6.0,41,0.00,,CLR,0.00,VWS V13.01,2013-02-18 13:00:00,
2013-02-18 08:05:00,48.3,25.7,30.29,North,355,3.0,5.0,41,0.00,,FEW050,0.00,VWS V13.01,2013-02-18 13:05:00,
2013-02-18 08:10:00,48.5,25.3,30.29,North,355,2.0,5.0,40,0.00,,FEW050,0.00,VWS V13.01,2013-02-18 13:10:00,
2013-02-18 08:15:00,48.7,25.5,30.29,North,355,4.0,5.0,40,0.00,,FEW050,0.00,VWS V13.01,2013-02-18 13:15:00,
2013-02-18 08:20:00,49.1,25.2,30.29,North,355,2.0,5.0,39,0.00,,FEW050,0.00,VWS V13.01,2013-02-18 13:20:00,
2013-02-18 08:25:00,49.5,26.8,30.29,North,355,0.0,5.0,41,0.00,,FEW050,0.00,VWS V13.01,2013-02-18 13:25:00,
2013-02-18 08:30:00,49.7,26.4,30.29,North,355,0.0,5.0,40,0.00,,FEW050,0.00,VWS V13.01,2013-02-18 13:30:00,
2013-02-18 08:35:00,50.0,26.0,30.29,North,355,4.0,4.0,39,0.00,,FEW050,0.00,VWS V13.01,2013-02-18 13:35:00,
2013-02-18 08:40:00,50.8,27.4,30.30,North,355,2.0,5.0,40,0.00,,FEW050,0.00,VWS V13.01,2013-02-18 13:40:00,
2013-02-18 08:45:00,51.5,29.2,30.30,North,355,0.0,5.0,42,0.00,,FEW050,0.00,VWS V13.01,2013-02-18 13:45:00,
2013-02-18 08:51:00,52.1,29.1,30.30,North,355,2.0,5.0,41,0.00,,FEW050,0.00,VWS V13.01,2013-02-18 13:51:00,
2013-02-18 08:56:00,53.1,30.6,30.30,North,355,3.0,6.0,42,0.00,,FEW050,0.00,VWS V13.01,2013-02-18 13:56:00,
2013-02-18 09:01:00,53.7,31.8,30.30,North,355,4.0,6.0,43,0.00,,SCT050,0.00,VWS V13.01,2013-02-18 14:01:00,
2013-02-18 09:06:00,54.2,32.2,30.30,North,355,2.0,4.0,43,0.00,,SCT050,0.00,VWS V13.01,2013-02-18 14:06:00,
2013-02-18 09:11:00,55.1,33.0,30.30,North,355,2.0,5.0,43,0.00,,SCT050,0.00,VWS V13.01,2013-02-18 14:11:00,
2013-02-18 09:16:00,56.1,35.1,30.30,North,355,0.0,5.0,45,0.00,,SCT050,0.00,VWS V13.01,2013-02-18 14:16:00,
2013-02-18 09:21:00,56.8,36.3,30.30,North,355,0.0,5.0,46,0.00,,SCT050,0.00,VWS V13.01,2013-02-18 14:21:00,
2013-02-18 09:26:00,57.2,37.7,30.30,North,355,0.0,5.0,48,0.00,,SCT050,0.00,VWS V13.01,2013-02-18 14:26:00,
2013-02-18 09:31:00,58.6,38.5,30.30,North,355,0.0,5.0,47,0.00,,SCT050,0.00,VWS V13.01,2013-02-18 14:31:00,
2013-02-18 09:36:00,60.0,40.3,30.30,North,355,0.0,0.0,48,0.00,,SCT050,0.00,VWS V13.01,2013-02-18 14:36:00,
2013-02-18 09:41:00,61.2,41.9,30.30,North,5,2.0,2.0,49,0.00,,SCT050,0.00,VWS V13.01,2013-02-18 14:41:00,
2013-02-18 09:46:00,62.6,42.7,30.30,East,91,1.0,12.0,48,0.00,,SCT050,0.00,VWS V13.01,2013-02-18 14:46:00,
2013-02-18 09:51:00,63.7,44.2,30.30,East,91,2.0,13.0,49,0.00,,SCT050,0.00,VWS V13.01,2013-02-18 14:51:00,
2013-02-18 09:56:00,64.3,45.3,30.30,ESE,113,7.0,14.0,50,0.00,,SCT050,0.00,VWS V13.01,2013-02-18 14:56:00,
2013-02-18 10:01:00,64.4,45.4,30.30,ESE,112,1.0,14.0,50,0.00,,SCT050,0.00,VWS V13.01,2013-02-18 15:01:00,
2013-02-18 10:06:00,64.4,45.9,30.31,SE,125,6.0,12.0,51,0.00,,SCT050,0.00,VWS V13.01,2013-02-18 15:06:00,
2013-02-18 10:11:00,64.6,46.1,30.31,East,88,2.0,12.0,51,0.00,,SCT050,0.00,VWS V13.01,2013-02-18 15:11:00,
2013-02-18 10:16:00,64.6,46.1,30.31,East,96,2.0,12.0,51,0.00,,SCT050,0.00,VWS V13.01,2013-02-18 15:16:00,
2013-02-18 10:21:00,64.7,46.2,30.31,East,85,1.0,14.0,51,0.00,,SCT050,0.00,VWS V13.01,2013-02-18 15:21:00,
2013-02-18 10:26:00,64.9,46.4,30.31,ESE,103,5.0,14.0,51,0.00,,SCT050,0.00,VWS V13.01,2013-02-18 15:26:00,
2013-02-18 10:31:00,65.2,46.6,30.31,East,84,1.0,14.0,51,0.00,,SCT050,0.00,VWS V13.01,2013-02-18 15:31:00,
2013-02-18 10:36:00,65.2,46.6,30.31,East,90,6.0,14.0,51,0.00,,SCT050,0.00,VWS V13.01,2013-02-18 15:36:00,
2013-02-18 10:41:00,65.9,46.8,30.31,ESE,106,6.0,14.0,50,0.00,,SCT050,0.00,VWS V13.01,2013-02-18 15:41:00,
2013-02-18 10:46:00,65.7,46.6,30.31,East,94,0.0,16.0,50,0.00,,SCT050,0.00,VWS V13.01,2013-02-18 15:46:00,
2013-02-18 10:51:00,65.5,46.4,30.31,ESE,113,5.0,16.0,50,0.00,,SCT050,0.00,VWS V13.01,2013-02-18 15:51:00,
2013-02-18 10:56:00,65.8,47.2,30.31,East,94,5.0,16.0,51,0.00,,SCT050,0.00,VWS V13.01,2013-02-18 15:56:00,
2013-02-18 11:01:00,67.2,48.5,30.31,East,101,6.0,16.0,51,0.00,,SCT055,0.00,VWS V13.01,2013-02-18 16:01:00,
2013-02-18 11:06:00,66.9,47.7,30.31,East,92,1.0,9.0,50,0.00,,SCT055,0.00,VWS V13.01,2013-02-18 16:06:00,
2013-02-18 11:11:00,66.4,47.2,30.31,ESE,113,1.0,13.0,50,0.00,,SCT055,0.00,VWS V13.01,2013-02-18 16:11:00,
2013-02-18 11:16:00,66.5,47.3,30.31,East,90,2.0,13.0,50,0.00,,SCT055,0.00,VWS V13.01,2013-02-18 16:16:00,
2013-02-18 11:21:00,67.0,47.8,30.31,ESE,110,7.0,13.0,50,0.00,,SCT055,0.00,VWS V13.01,2013-02-18 16:21:00,
2013-02-18 11:26:00,68.1,47.7,30.31,East,94,1.0,13.0,48,0.00,,SCT055,0.00,VWS V13.01,2013-02-18 16:26:00,
2013-02-18 11:31:00,68.2,47.2,30.31,East,84,5.0,13.0,47,0.00,,SCT055,0.00,VWS V13.01,2013-02-18 16:31:00,
2013-02-18 11:36:00,68.1,47.7,30.30,ESE,111,2.0,13.0,48,0.00,,SCT055,0.00,VWS V13.01,2013-02-18 16:36:00,
2013-02-18 11:41:00,68.8,48.3,30.30,East,92,0.0,13.0,48,0.00,,SCT055,0.00,VWS V13.01,2013-02-18 16:41:00,
2013-02-18 11:46:00,69.3,48.2,30.30,East,90,4.0,13.0,47,0.00,,SCT055,0.00,VWS V13.01,2013-02-18 16:46:00,
2013-02-18 11:51:00,68.8,48.3,30.30,East,89,0.0,13.0,48,0.00,,SCT055,0.00,VWS V13.01,2013-02-18 16:51:00,
2013-02-18 11:56:00,68.3,47.9,30.30,East,101,2.0,13.0,48,0.00,,SCT055,0.00,VWS V13.01,2013-02-18 16:56:00,
2013-02-18 12:01:00,67.8,48.0,30.30,ESE,111,0.0,13.0,49,0.00,,SCT055,0.00,VWS V13.01,2013-02-18 17:01:00,
2013-02-18 12:06:00,67.9,48.1,30.30,East,101,9.0,11.0,49,0.00,,SCT055,0.00,VWS V13.01,2013-02-18 17:06:00,
2013-02-18 12:11:00,67.7,47.3,30.30,East,81,3.0,11.0,48,0.00,,SCT055,0.00,VWS V13.01,2013-02-18 17:11:00,
2013-02-18 12:16:00,67.7,47.9,30.30,East,100,6.0,12.0,49,0.00,,SCT055,0.00,VWS V13.01,2013-02-18 17:16:00,
2013-02-18 12:21:00,68.9,49.5,30.30,ESE,111,1.0,12.0,50,0.00,,SCT055,0.00,VWS V13.01,2013-02-18 17:21:00,
2013-02-18 12:26:00,69.1,49.2,30.30,East,82,4.0,12.0,49,0.00,,SCT055,0.00,VWS V13.01,2013-02-18 17:26:00,
2013-02-18 12:31:00,68.6,48.7,30.29,East,98,0.0,13.0,49,0.00,,SCT055,0.00,VWS V13.01,2013-02-18 17:31:00,
2013-02-18 12:36:00,68.7,48.8,30.29,East,81,0.0,11.0,49,0.00,,SCT055,0.00,VWS V13.01,2013-02-18 17:36:00,
2013-02-18 12:41:00,68.4,49.1,30.29,East,80,3.0,15.0,50,0.00,,SCT055,0.00,VWS V13.01,2013-02-18 17:41:00,
2013-02-18 12:46:00,68.3,49.0,30.28,ESE,120,0.0,15.0,50,0.00,,SCT055,0.00,VWS V13.01,2013-02-18 17:46:00,
2013-02-18 12:51:00,67.8,48.5,30.28,East,96,5.0,15.0,50,0.00,,SCT055,0.00,VWS V13.01,2013-02-18 17:51:00,
2013-02-18 12:56:00,68.3,49.5,30.28,ESE,119,4.0,15.0,51,0.00,,SCT055,0.00,VWS V13.01,2013-02-18 17:56:00,
2013-02-18 13:01:00,68.6,49.2,30.28,East,94,0.0,17.0,50,0.00,,SCT060,0.00,VWS V13.01,2013-02-18 18:01:00,
2013-02-18 13:06:00,68.2,48.9,30.28,East,84,3.0,10.0,50,0.00,,SCT060,0.00,VWS V13.01,2013-02-18 18:06:00,
2013-02-18 13:11:00,68.0,49.2,30.27,ESE,103,1.0,10.0,51,0.00,,SCT060,0.00,VWS V13.01,2013-02-18 18:11:00,
2013-02-18 13:16:00,67.8,49.0,30.27,East,90,4.0,11.0,51,0.00,,SCT060,0.00,VWS V13.01,2013-02-18 18:16:00,
2013-02-18 13:21:00,67.7,48.9,30.27,ESE,107,7.0,12.0,51,0.00,,SCT060,0.00,VWS V13.01,2013-02-18 18:21:00,
2013-02-18 13:26:00,67.9,49.1,30.27,East,86,4.0,12.0,51,0.00,,SCT060,0.00,VWS V13.01,2013-02-18 18:26:00,
2013-02-18 13:31:00,68.1,49.3,30.26,ESE,112,4.0,14.0,51,0.00,,SCT060,0.00,VWS V13.01,2013-02-18 18:31:00,
2013-02-18 13:36:00,68.6,49.8,30.26,East,81,3.0,10.0,51,0.00,,SCT060,0.00,VWS V13.01,2013-02-18 18:36:00,
2013-02-18 13:41:00,68.5,49.7,30.26,East,82,10.0,12.0,51,0.00,,SCT060,0.00,VWS V13.01,2013-02-18 18:41:00,
2013-02-18 13:46:00,68.5,49.7,30.26,East,86,0.0,12.0,51,0.00,,SCT060,0.00,VWS V13.01,2013-02-18 18:46:00,
2013-02-18 13:51:00,69.7,50.8,30.26,ESE,103,12.0,15.0,51,0.00,,SCT060,0.00,VWS V13.01,2013-02-18 18:51:00,
2013-02-18 13:56:00,69.6,50.2,30.25,ESE,110,5.0,15.0,50,0.00,,SCT060,0.00,VWS V13.01,2013-02-18 18:56:00,
2013-02-18 14:01:00,69.2,50.3,30.25,East,82,0.0,15.0,51,0.00,,BKN060,0.00,VWS V13.01,2013-02-18 19:01:00,
2013-02-18 14:06:00,69.2,50.3,30.25,East,83,1.0,12.0,51,0.00,,BKN060,0.00,VWS V13.01,2013-02-18 19:06:00,
2013-02-18 14:11:00,69.6,50.2,30.25,East,101,0.0,13.0,50,0.00,,BKN060,0.00,VWS V13.01,2013-02-18 19:11:00,
2013-02-18 14:16:00,69.5,50.6,30.25,ENE,58,8.0,13.0,51,0.00,,BKN060,0.00,VWS V13.01,2013-02-18 19:16:00,
2013-02-18 14:21:00,69.0,50.1,30.25,East,89,6.0,13.0,51,0.00,,BKN060,0.00,VWS V13.01,2013-02-18 19:21:00,
2013-02-18 14:26:00,68.4,49.6,30.25,NE,53,0.0,13.0,51,0.00,,BKN060,0.00,VWS V13.01,2013-02-18 19:26:00,
2013-02-18 14:31:00,68.3,49.5,30.24,East,92,4.0,13.0,51,0.00,,BKN060,0.00,VWS V13.01,2013-02-18 19:31:00,
2013-02-18 14:36:00,68.0,49.2,30.24,East,82,0.0,12.0,51,0.00,,BKN060,0.00,VWS V13.01,2013-02-18 19:36:00,
2013-02-18 14:41:00,67.9,49.1,30.24,East,84,2.0,12.0,51,0.00,,BKN060,0.00,VWS V13.01,2013-02-18 19:41:00,
2013-02-18 14:46:00,68.0,49.2,30.24,East,82,2.0,12.0,51,0.00,,BKN060,0.00,VWS V13.01,2013-02-18 19:46:00,
2013-02-18 14:51:00,68.6,49.2,30.23,East,99,11.0,14.0,50,0.00,,BKN060,0.00,VWS V13.01,2013-02-18 19:51:00,
2013-02-18 14:56:00,69.4,50.5,30.23,East,93,9.0,16.0,51,0.00,,BKN060,0.00,VWS V13.01,2013-02-18 19:56:00,
2013-02-18 15:01:00,69.7,50.8,30.23,East,85,3.0,16.0,51,0.00,,BKN060,0.00,VWS V13.01,2013-02-18 20:01:00,
2013-02-18 15:07:00,69.6,50.7,30.23,NE,49,0.0,13.0,51,0.00,,BKN060,0.00,VWS V13.01,2013-02-18 20:07:00,
2013-02-18 15:12:00,69.6,50.7,30.22,NE,55,0.0,13.0,51,0.00,,BKN060,0.00,VWS V13.01,2013-02-18 20:12:00,
2013-02-18 15:17:00,69.8,50.9,30.22,East,84,3.0,15.0,51,0.00,,BKN060,0.00,VWS V13.01,2013-02-18 20:17:00,
2013-02-18 15:22:00,69.3,50.4,30.22,East,87,6.0,16.0,51,0.00,,BKN060,0.00,VWS V13.01,2013-02-18 20:22:00,
2013-02-18 15:27:00,69.0,50.1,30.22,ENE,72,2.0,16.0,51,0.00,,BKN060,0.00,VWS V13.01,2013-02-18 20:27:00,
2013-02-18 15:32:00,69.2,50.3,30.22,East,94,9.0,12.0,51,0.00,,BKN060,0.00,VWS V13.01,2013-02-18 20:32:00,
2013-02-18 15:37:00,69.1,50.2,30.22,East,90,11.0,12.0,51,0.00,,BKN060,0.00,VWS V13.01,2013-02-18 20:37:00,
2013-02-18 15:42:00,68.8,50.0,30.22,East,96,13.0,15.0,51,0.00,,BKN060,0.00,VWS V13.01,2013-02-18 20:42:00,
2013-02-18 15:47:00,68.9,50.0,30.22,East,81,2.0,15.0,51,0.00,,BKN060,0.00,VWS V13.01,2013-02-18 20:47:00,
2013-02-18 15:52:00,68.8,50.0,30.22,ESE,109,0.0,15.0,51,0.00,,BKN060,0.00,VWS V13.01,2013-02-18 20:52:00,
2013-02-18 15:57:00,68.8,50.0,30.22,East,86,7.0,15.0,51,0.00,,BKN060,0.00,VWS V13.01,2013-02-18 20:57:00,
2013-02-18 16:03:00,68.8,50.0,30.22,ESE,110,13.0,13.0,51,0.00,,BKN060,0.00,VWS V13.01,2013-02-18 21:03:00,
2013-02-18 16:08:00,68.8,50.0,30.22,East,84,8.0,15.0,51,0.00,,BKN060,0.00,VWS V13.01,2013-02-18 21:08:00,
2013-02-18 16:13:00,68.5,49.7,30.22,East,83,4.0,15.0,51,0.00,,BKN060,0.00,VWS V13.01,2013-02-18 21:13:00,
2013-02-18 16:18:00,68.4,49.6,30.23,ENE,78,4.0,15.0,51,0.00,,BKN060,0.00,VWS V13.01,2013-02-18 21:18:00,
2013-02-18 16:23:00,68.4,49.6,30.23,East,91,2.0,15.0,51,0.00,,BKN060,0.00,VWS V13.01,2013-02-18 21:23:00,
2013-02-18 16:28:00,68.4,49.1,30.23,East,82,10.0,15.0,50,0.00,,BKN060,0.00,VWS V13.01,2013-02-18 21:28:00,
2013-02-18 16:33:00,68.2,49.4,30.23,East,97,9.0,9.0,51,0.00,,BKN060,0.00,VWS V13.01,2013-02-18 21:33:00,
2013-02-18 16:38:00,68.1,49.3,30.23,East,86,4.0,13.0,51,0.00,,BKN060,0.00,VWS V13.01,2013-02-18 21:38:00,
2013-02-18 16:43:00,67.9,48.6,30.23,ESE,103,9.0,13.0,50,0.00,,BKN060,0.00,VWS V13.01,2013-02-18 21:43:00,
2013-02-18 16:48:00,67.9,48.1,30.22,East,94,6.0,13.0,49,0.00,,BKN060,0.00,VWS V13.01,2013-02-18 21:48:00,
2013-02-18 16:53:00,67.9,48.6,30.22,ESE,111,0.0,13.0,50,0.00,,BKN060,0.00,VWS V13.01,2013-02-18 21:53:00,
2013-02-18 16:58:00,67.9,49.1,30.23,ESE,116,0.0,13.0,51,0.00,,BKN060,0.00,VWS V13.01,2013-02-18 21:58:00,
2013-02-18 17:03:00,67.9,49.7,30.23,East,101,8.0,9.0,52,0.00,,BKN060,0.00,VWS V13.01,2013-02-18 22:03:00,
2013-02-18 17:08:00,68.0,49.7,30.23,ESE,109,7.0,11.0,52,0.00,,BKN060,0.00,VWS V13.01,2013-02-18 22:08:00,
2013-02-18 17:13:00,68.0,49.2,30.23,ESE,120,0.0,11.0,51,0.00,,BKN060,0.00,VWS V13.01,2013-02-18 22:13:00,
2013-02-18 17:18:00,68.0,49.7,30.23,ESE,113,5.0,11.0,52,0.00,,BKN060,0.00,VWS V13.01,2013-02-18 22:18:00,
2013-02-18 17:23:00,67.9,49.1,30.23,ESE,107,0.0,11.0,51,0.00,,BKN060,0.00,VWS V13.01,2013-02-18 22:23:00,
2013-02-18 17:28:00,67.8,49.5,30.23,ESE,117,4.0,11.0,52,0.00,,BKN060,0.00,VWS V13.01,2013-02-18 22:28:00,
2013-02-18 17:33:00,67.7,49.5,30.23,East,96,1.0,9.0,52,0.00,,BKN060,0.00,VWS V13.01,2013-02-18 22:33:00,
2013-02-18 17:38:00,67.7,48.9,30.23,ESE,118,7.0,11.0,51,0.00,,BKN060,0.00,VWS V13.01,2013-02-18 22:38:00,
2013-02-18 17:43:00,67.6,48.8,30.23,ESE,108,0.0,11.0,51,0.00,,BKN060,0.00,VWS V13.01,2013-02-18 22:43:00,
2013-02-18 17:48:00,67.6,48.8,30.23,East,96,0.0,11.0,51,0.00,,BKN060,0.00,VWS V13.01,2013-02-18 22:48:00,
2013-02-18 17:53:00,67.5,48.8,30.23,ESE,109,5.0,11.0,51,0.00,,BKN060,0.00,VWS V13.01,2013-02-18 22:53:00,
2013-02-18 17:58:00,67.5,48.2,30.22,East,84,2.0,11.0,50,0.00,,BKN060,0.00,VWS V13.01,2013-02-18 22:58:00,
2013-02-18 18:03:00,67.4,48.1,30.22,East,95,0.0,6.0,50,0.00,,OVC065,0.00,VWS V13.01,2013-02-18 23:03:00,
2013-02-18 18:08:00,67.3,47.0,30.22,East,98,2.0,9.0,48,0.00,,OVC065,0.00,VWS V13.01,2013-02-18 23:08:00,
2013-02-18 18:13:00,67.2,46.9,30.23,ESE,115,5.0,9.0,48,0.00,,OVC065,0.00,VWS V13.01,2013-02-18 23:13:00,
2013-02-18 18:18:00,67.1,46.2,30.22,East,96,2.0,9.0,47,0.00,,OVC065,0.00,VWS V13.01,2013-02-18 23:18:00,
2013-02-18 18:23:00,67.0,45.6,30.23,ESE,108,4.0,9.0,46,0.00,,OVC065,0.00,VWS V13.01,2013-02-18 23:23:00,
2013-02-18 18:28:00,66.9,44.9,30.23,East,98,2.0,12.0,45,0.00,,OVC065,0.00,VWS V13.01,2013-02-18 23:28:00,
2013-02-18 18:33:00,66.8,44.2,30.23,East,94,7.0,8.0,44,0.00,,OVC065,0.00,VWS V13.01,2013-02-18 23:33:00,
2013-02-18 18:38:00,66.9,43.7,30.22,ESE,105,2.0,8.0,43,0.00,,OVC065,0.00,VWS V13.01,2013-02-18 23:38:00,
2013-02-18 18:43:00,66.8,44.8,30.22,ESE,103,0.0,9.0,45,0.00,,OVC065,0.00,VWS V13.01,2013-02-18 23:43:00,
2013-02-18 18:48:00,66.8,44.8,30.23,ESE,105,0.0,9.0,45,0.00,,OVC065,0.00,VWS V13.01,2013-02-18 23:48:00,
2013-02-18 18:53:00,66.9,45.5,30.22,ESE,103,2.0,12.0,46,0.00,,OVC065,0.00,VWS V13.01,2013-02-18 23:53:00,
2013-02-18 18:58:00,66.9,46.0,30.22,ESE,103,0.0,12.0,47,0.00,,OVC065,0.00,VWS V13.01,2013-02-18 23:58:00,
2013-02-18 19:03:00,66.9,46.0,30.22,ESE,109,1.0,8.0,47,0.00,,BKN060,0.00,VWS V13.01,2013-02-19 00:03:00,
2013-02-18 19:08:00,66.8,44.8,30.22,East,90,6.0,9.0,45,0.00,,BKN060,0.00,VWS V13.01,2013-02-19 00:08:00,
2013-02-18 19:13:00,66.7,44.1,30.22,ESE,116,4.0,11.0,44,0.00,,BKN060,0.00,VWS V13.01,2013-02-19 00:13:00,
2013-02-18 19:18:00,66.7,44.1,30.22,ESE,111,4.0,13.0,44,0.00,,BKN060,0.00,VWS V13.01,2013-02-19 00:18:00,
2013-02-18 19:23:00,66.5,42.1,30.22,East,92,0.0,13.0,41,0.00,,BKN060,0.00,VWS V13.01,2013-02-19 00:23:00,
2013-02-18 19:28:00,66.3,40.0,30.22,ESE,115,0.0,13.0,38,0.00,,BKN060,0.00,VWS V13.01,2013-02-19 00:28:00,
2013-02-18 19:33:00,66.1,38.4,30.22,East,101,0.0,5.0,36,0.00,,BKN060,0.00,VWS V13.01,2013-02-19 00:33:00,
2013-02-18 19:38:00,66.1,39.1,30.22,East,90,0.0,7.0,37,0.00,,BKN060,0.00,VWS V13.01,2013-02-19 00:38:00,
2013-02-18 19:43:00,66.3,40.6,30.22,ESE,111,7.0,14.0,39,0.00,,BKN060,0.00,VWS V13.01,2013-02-19 00:43:00,
2013-02-18 19:48:00,66.5,42.1,30.22,East,92,5.0,14.0,41,0.00,,BKN060,0.00,VWS V13.01,2013-02-19 00:48:00,
2013-02-18 19:53:00,66.5,42.1,30.22,East,94,1.0,14.0,41,0.00,,BKN060,0.00,VWS V13.01,2013-02-19 00:53:00,
2013-02-18 19:58:00,66.4,42.0,30.22,East,94,0.0,14.0,41,0.00,,BKN060,0.00,VWS V13.01,2013-02-19 00:58:00,
2013-02-18 20:03:00,66.3,41.3,30.22,East,101,0.0,8.0,40,0.00,,SCT060,0.00,VWS V13.01,2013-02-19 01:03:00,
2013-02-18 20:08:00,66.4,40.0,30.22,East,79,1.0,8.0,38,0.00,,SCT060,0.00,VWS V13.01,2013-02-19 01:08:00,
2013-02-18 20:13:00,66.4,40.0,30.22,East,92,0.0,10.0,38,0.00,,SCT060,0.00,VWS V13.01,2013-02-19 01:13:00,
2013-02-18 20:18:00,66.5,40.1,30.22,East,85,3.0,12.0,38,0.00,,SCT060,0.00,VWS V13.01,2013-02-19 01:18:00,
2013-02-18 20:23:00,66.5,40.1,30.22,East,86,1.0,12.0,38,0.00,,SCT060,0.00,VWS V13.01,2013-02-19 01:23:00,
2013-02-18 20:28:00,66.5,39.5,30.22,East,93,1.0,12.0,37,0.00,,SCT060,0.00,VWS V13.01,2013-02-19 01:28:00,
2013-02-18 20:33:00,66.6,40.2,30.22,East,97,4.0,7.0,38,0.00,,SCT060,0.00,VWS V13.01,2013-02-19 01:33:00,
2013-02-18 20:38:00,66.6,40.2,30.22,SE,128,4.0,12.0,38,0.00,,SCT060,0.00,VWS V13.01,2013-02-19 01:38:00,
2013-02-18 20:44:00,66.6,40.2,30.22,ESE,116,2.0,12.0,38,0.00,,SCT060,0.00,VWS V13.01,2013-02-19 01:44:00,
2013-02-18 20:49:00,66.6,40.2,30.22,ESE,111,0.0,12.0,38,0.00,,SCT060,0.00,VWS V13.01,2013-02-19 01:49:00,
2013-02-18 20:54:00,66.4,39.4,30.22,ESE,107,0.0,12.0,37,0.00,,SCT060,0.00,VWS V13.01,2013-02-19 01:54:00,
2013-02-18 20:59:00,66.4,38.7,30.22,ESE,104,4.0,12.0,36,0.00,,SCT060,0.00,VWS V13.01,2013-02-19 01:59:00,
2013-02-18 21:04:00,66.4,38.7,30.22,East,101,2.0,12.0,36,0.00,,SCT060,0.00,VWS V13.01,2013-02-19 02:04:00,
2013-02-18 21:09:00,66.4,37.2,30.22,ESE,103,2.0,13.0,34,0.00,,SCT060,0.00,VWS V13.01,2013-02-19 02:09:00,
2013-02-18 21:14:00,66.4,36.5,30.22,ESE,117,5.0,13.0,33,0.00,,SCT060,0.00,VWS V13.01,2013-02-19 02:14:00,
2013-02-18 21:19:00,66.4,35.7,30.21,East,82,7.0,13.0,32,0.00,,SCT060,0.00,VWS V13.01,2013-02-19 02:19:00,
2013-02-18 21:24:00,66.4,34.9,30.21,East,97,0.0,13.0,31,0.00,,SCT060,0.00,VWS V13.01,2013-02-19 02:24:00,
2013-02-18 21:29:00,66.4,35.7,30.21,East,90,0.0,13.0,32,0.00,,SCT060,0.00,VWS V13.01,2013-02-19 02:29:00,
2013-02-18 21:34:00,66.3,34.8,30.21,East,98,1.0,6.0,31,0.00,,SCT060,0.00,VWS V13.01,2013-02-19 02:34:00,
2013-02-18 21:39:00,66.2,33.9,30.21,ESE,108,2.0,9.0,30,0.00,,SCT060,0.00,VWS V13.01,2013-02-19 02:39:00,
2013-02-18 21:44:00,65.9,30.1,30.21,ESE,105,5.0,11.0,26,0.00,,SCT060,0.00,VWS V13.01,2013-02-19 02:44:00,
2013-02-18 21:50:00,65.9,30.1,30.21,East,98,6.0,11.0,26,0.00,,SCT060,0.00,VWS V13.01,2013-02-19 02:50:00,
2013-02-18 21:55:00,65.6,25.8,30.21,ESE,105,4.0,11.0,22,0.00,,SCT060,0.00,VWS V13.01,2013-02-19 02:55:00,
2013-02-18 22:00:00,65.4,22.1,30.21,ENE,77,7.0,12.0,19,0.00,,SCT060,0.00,VWS V13.01,2013-02-19 03:00:00,
2013-02-18 22:05:00,64.7,6.9,30.21,East,82,1.0,8.0,10,0.00,,BKN065,0.00,VWS V13.01,2013-02-19 03:05:00,
2013-02-18 22:10:00,64.3,-8.1,30.21,East,87,5.0,8.0,5,0.00,,BKN065,0.00,VWS V13.01,2013-02-19 03:10:00,
2013-02-18 22:15:00,64.0,-26.1,30.21,East,95,0.0,8.0,2,0.00,,BKN065,0.00,VWS V13.01,2013-02-19 03:15:00,
2013-02-18 22:20:00,64.6,4.5,30.21,ESE,110,2.0,10.0,9,0.00,,BKN065,0.00,VWS V13.01,2013-02-19 03:20:00,
2013-02-18 22:25:00,65.1,14.8,30.21,ESE,111,4.0,10.0,14,0.00,,BKN065,0.00,VWS V13.01,2013-02-19 03:25:00,
2013-02-18 22:30:00,66.1,27.2,30.21,ESE,120,0.0,10.0,23,0.00,,BKN065,0.00,VWS V13.01,2013-02-19 03:30:00,
2013-02-18 22:35:00,66.6,31.6,30.21,ESE,117,0.0,7.0,27,0.00,,BKN065,0.00,VWS V13.01,2013-02-19 03:35:00,
2013-02-18 22:40:00,67.0,34.6,30.21,ESE,111,4.0,8.0,30,0.00,,BKN065,0.00,VWS V13.01,2013-02-19 03:40:00,
2013-02-18 22:45:00,67.4,38.1,30.21,ESE,114,1.0,8.0,34,0.00,,BKN065,0.00,VWS V13.01,2013-02-19 03:45:00,
2013-02-18 22:50:00,67.5,39.6,30.21,ESE,112,2.0,8.0,36,0.00,,BKN065,0.00,VWS V13.01,2013-02-19 03:50:00,
2013-02-18 22:55:00,67.4,38.8,30.21,ESE,111,5.0,8.0,35,0.00,,BKN065,0.00,VWS V13.01,2013-02-19 03:55:00,
2013-02-18 23:00:00,67.4,39.5,30.21,ESE,115,0.0,12.0,36,0.00,,BKN065,0.00,VWS V13.01,2013-02-19 04:00:00,
2013-02-18 23:05:00,67.4,39.5,30.21,ESE,111,0.0,7.0,36,0.00,,BKN065,0.00,VWS V13.01,2013-02-19 04:05:00,
2013-02-18 23:11:00,67.1,37.8,30.21,ESE,111,1.0,7.0,34,0.00,,BKN065,0.00,VWS V13.01,2013-02-19 04:11:00,
2013-02-18 23:16:00,66.8,36.0,30.20,ESE,113,1.0,7.0,32,0.00,,BKN065,0.00,VWS V13.01,2013-02-19 04:16:00,
2013-02-18 23:21:00,66.7,35.9,30.20,SE,124,0.0,8.0,32,0.00,,BKN065,0.00,VWS V13.01,2013-02-19 04:21:00,
2013-02-18 23:26:00,66.4,34.0,30.21,ESE,119,0.0,11.0,30,0.00,,BKN065,0.00,VWS V13.01,2013-02-19 04:26:00,
2013-02-18 23:31:00,66.3,33.1,30.21,SE,132,0.0,11.0,29,0.00,,BKN065,0.00,VWS V13.01,2013-02-19 04:31:00,
2013-02-18 23:36:00,66.2,33.0,30.20,SE,130,0.0,7.0,29,0.00,,BKN065,0.00,VWS V13.01,2013-02-19 04:36:00,
2013-02-18 23:41:00,66.2,33.9,30.20,SE,124,2.0,8.0,30,0.00,,BKN065,0.00,VWS V13.01,2013-02-19 04:41:00,
2013-02-18 23:46:00,66.1,32.1,30.20,SE,124,5.0,8.0,28,0.00,,BKN065,0.00,VWS V13.01,2013-02-19 04:46:00,
2013-02-18 23:51:00,66.2,33.0,30.20,East,97,2.0,13.0,29,0.00,,BKN065,0.00,VWS V13.01,2013-02-19 04:51:00,
2013-02-18 23:56:00,65.9,30.1,30.20,ESE,103,9.0,13.0,26,0.00,,BKN065,0.00,VWS V13.01,2013-02-19 04:56:00,